Location: Julian California
(33.0790°N, 116.6010°W)
Time: 22:28:31
(UTC-08:00)

Helios 1B rocket - Pass Details

Date: 19 May 2017
Orbit: 576 x 586 km, 98.2° (Epoch: 20 November)

Event Time Altitude Azimuth Distance (km) Brightness Sun altitude
Rises 20:17:51 0° 21° (NNE) 2,803 6.0 -7.5°
Reaches altitude 10° 20:20:07 10° 29° (NNE) 1,902 5.1 -7.9°
Maximum altitude 20:24:00 40° 100° (E) 862 2.9 -8.6°
Drops below altitude 10° 20:27:53 10° 170° (S) 1,896 4.7 -9.3°
Sets 20:30:07 0° 178° (S) 2,793 5.6 -9.7°
